Date String (YYYY-MM-DD hh:mm:ss) UTC,Instrument flags,absolute air pressure of the measurement (hPa),sample flow rate (lpm),inlet stack bypass flow (lpm),air temperature of the measurement (°C),ambient temperature measured by the external sensor (°C),aerosol sample conditioner tube jacket temperature (°C),OPC LED temperature (°C),internal box temperature (°C),relative humidity of the measurement (%),span deviation,mass concentration of particles derived from Lorenz-Mie calculation of OPC scattering (μg/m³),mass concentration of particles derived from Lorenz-Mie calculation of OPC scattering (μg/m³),mass concentration of particles derived from Lorenz-Mie calculation of OPC scattering (μg/m³)
DateTimeUTC,F1_M11,P_M11,Q1_M11,Q2_M11,T1_M11,T2_M11,T3_M11,T4_M11,T5_M11,U1_M11,ZSPAN_M11,X0_M11,X2_M11,X1_M11
2024-06-07 15:00:00,SystemResetWarning,0827.4,4.99,000.00,030.0,027.8,000.0,038.4,031.0,023.0,0000.0,0024.09,0004.70,0002.92
2024-06-07 15:01:00,SystemResetWarning,0827.4,5.01,000.00,029.6,026.6,000.0,038.4,030.4,024.5,0000.0,0022.53,0004.55,0002.89
2024-06-07 15:02:00,SystemResetWarning,0827.4,5.01,000.00,029.5,027.0,000.0,038.4,030.5,025.8,0000.0,0021.79,0004.50,0002.86
2024-06-07 15:03:00,SystemResetWarning,0827.4,5.00,000.00,029.5,027.4,000.0,038.2,030.7,025.7,0000.0,0021.70,0004.49,0002.84
2024-06-07 15:04:00,SystemResetWarning,0827.4,5.00,000.00,029.5,027.7,000.0,038.1,030.9,026.0,0000.0,0021.42,0004.48,0002.85
2024-06-07 15:05:00,SystemResetWarning,0827.4,5.00,000.00,029.5,028.1,000.0,038.1,031.1,024.1,0000.0,0021.43,0004.51,0002.87
2024-06-07 15:06:00,SystemResetWarning,0827.4,5.01,000.00,029.6,028.4,000.0,038.1,031.2,024.5,0000.0,0022.73,0004.55,0002.87
2024-06-07 15:07:00,SystemResetWarning,0827.3,5.00,000.00,029.6,028.6,000.0,038.0,031.3,024.6,0000.0,0022.93,0004.59,0002.87
2024-06-07 15:08:00,SystemResetWarning,0827.3,4.99,000.00,029.7,028.8,000.0,038.0,031.4,024.1,0000.0,0023.93,0004.67,0002.91
2024-06-07 15:09:00,SystemResetWarning,0827.3,5.00,000.00,029.8,029.0,000.0,038.0,031.5,024.0,0000.0,0024.80,0004.68,0002.94
2024-06-07 15:10:00,SystemResetWarning,0827.4,5.00,000.00,029.8,029.2,000.0,038.1,031.6,025.6,0000.0,0024.70,0004.74,0002.95
2024-06-07 15:11:00,SystemResetWarning,0827.4,5.00,000.00,029.9,029.3,000.0,038.1,031.7,026.1,0000.0,0026.33,0004.82,0002.97
2024-06-07 15:12:00,SystemResetWarning,0827.4,5.00,000.00,029.9,029.4,000.0,038.1,031.7,027.0,0000.0,0029.43,0004.93,0002.97
2024-06-07 15:13:00,SystemResetWarning,0827.4,5.00,000.00,030.0,029.5,000.0,038.1,031.7,027.2,0000.0,0030.02,0004.99,0002.97
2024-06-07 15:14:00,SystemResetWarning,0827.5,5.00,000.00,030.1,029.5,000.0,038.2,031.8,026.9,0000.0,0030.98,0005.01,0002.97
2024-06-07 15:15:00,SystemResetWarning,0827.4,4.99,000.00,030.0,028.4,000.0,038.3,031.2,026.8,0000.0,0031.00,0005.01,0002.97
2024-06-07 15:16:00,SystemResetWarning,0827.4,5.01,000.00,029.6,026.4,000.0,038.3,030.3,027.0,0000.0,0030.43,0005.01,0002.96
2024-06-07 15:17:00,SystemResetWarning,0827.4,5.02,000.00,029.4,026.4,000.0,038.3,030.2,027.9,0000.0,0030.18,0004.96,0002.95
2024-06-07 15:18:00,SystemResetWarning,0827.4,5.00,000.00,029.3,026.9,000.0,038.1,030.4,027.9,0000.0,0032.47,0004.94,0002.94
2024-06-07 15:19:00,SystemResetWarning,0827.6,4.99,000.00,029.3,027.3,000.0,038.0,030.7,028.0,0000.0,0031.56,0004.87,0002.92
2024-06-07 15:20:00,SystemResetWarning,0827.5,5.00,000.00,029.4,027.7,000.0,037.9,030.9,028.2,0000.0,0031.80,0004.84,0002.92
2024-06-07 15:21:00,SystemResetWarning,0827.5,5.01,000.00,029.4,028.1,000.0,037.9,031.0,026.9,0000.0,0030.66,0004.83,0002.92
2024-06-07 15:22:00,SystemResetWarning,0827.5,5.00,000.00,029.5,028.3,000.0,037.9,031.1,026.5,0000.0,0029.48,0004.79,0002.93
2024-06-07 15:23:00,SystemResetWarning,0827.5,4.99,000.00,029.5,028.6,000.0,037.9,031.2,024.8,0000.0,0027.63,0004.78,0002.93
2024-06-07 15:24:00,SystemResetWarning,0827.6,5.00,000.00,029.6,028.8,000.0,037.9,031.3,022.6,0000.0,0029.89,0004.82,0002.92
2024-06-07 15:25:00,SystemResetWarning,0827.7,5.00,000.00,029.6,029.0,000.0,037.9,031.4,023.8,0000.0,0030.74,0004.85,0002.91
2024-06-07 15:26:00,SystemResetWarning,0827.7,5.00,000.00,029.7,029.1,000.0,037.9,031.5,024.5,0000.0,0032.71,0004.88,0002.88
2024-06-07 15:27:00,SystemResetWarning,0827.7,4.99,000.00,029.8,029.2,000.0,037.9,031.6,025.0,0000.0,0034.67,0004.91,0002.87
2024-06-07 15:28:00,SystemResetWarning,0827.7,5.00,000.00,029.8,029.3,000.0,038.0,031.6,025.1,0000.0,0034.81,0004.97,0002.88
2024-06-07 15:29:00,SystemResetWarning,0827.6,4.99,000.00,029.9,029.0,000.0,038.0,031.4,026.0,0000.0,0032.73,0004.95,0002.87
2024-06-07 15:30:00,SystemResetWarning,0827.6,5.00,000.00,029.6,027.0,000.0,038.1,030.5,026.5,0000.0,0033.13,0004.91,0002.86
2024-06-07 15:31:00,SystemResetWarning,0827.4,5.01,000.00,029.2,026.1,000.0,038.1,030.0,026.3,0000.0,0033.29,0004.94,0002.86
2024-06-07 15:32:00,SystemResetWarning,0827.4,5.00,000.00,029.1,026.6,000.0,038.0,030.2,026.1,0000.0,0033.49,0005.02,0002.87
2024-06-07 15:33:00,SystemResetWarning,0827.4,4.99,000.00,029.1,027.0,000.0,037.9,030.4,026.1,0000.0,0034.32,0005.02,0002.85
2024-06-07 15:34:00,SystemResetWarning,0827.7,5.00,000.00,029.2,027.4,000.0,037.8,030.6,027.3,0000.0,0034.54,0005.02,0002.86
2024-06-07 15:35:00,SystemResetWarning,0827.6,5.01,000.00,029.2,027.8,000.0,037.7,030.8,027.0,0000.0,0034.05,0005.02,0002.90
2024-06-07 15:36:00,SystemResetWarning,0827.7,5.01,000.00,029.3,028.1,000.0,037.7,030.9,026.9,0000.0,0032.89,0005.16,0002.95
2024-06-07 15:37:00,SystemResetWarning,0827.7,4.99,000.00,029.4,028.4,000.0,037.7,031.1,026.3,0000.0,0031.21,0005.26,0002.99
2024-06-07 15:38:00,SystemResetWarning,0827.7,5.00,000.00,029.4,028.6,000.0,037.7,031.2,026.2,0000.0,0029.12,0005.28,0003.01
2024-06-07 15:39:00,SystemResetWarning,0827.5,5.01,000.00,029.5,028.8,000.0,037.7,031.3,026.6,0000.0,0028.83,0005.30,0003.03
2024-06-07 15:40:00,SystemResetWarning,0827.8,5.01,000.00,029.6,029.0,000.0,037.7,031.3,026.6,0000.0,0029.87,0005.28,0003.03
2024-06-07 15:41:00,SystemResetWarning,0827.5,5.01,000.00,029.6,029.1,000.0,037.8,031.4,027.0,0000.0,0030.62,0005.37,0003.04
2024-06-07 15:42:00,SystemResetWarning,0827.7,4.99,000.00,029.7,029.2,000.0,037.8,031.5,027.3,0000.0,0030.05,0005.36,0003.04
2024-06-07 15:43:00,SystemResetWarning,0827.7,4.99,000.00,029.7,028.6,000.0,037.9,031.2,027.0,0000.0,0031.76,0005.40,0003.05
2024-06-07 15:44:00,SystemResetWarning,0827.6,5.01,000.00,029.4,026.7,000.0,037.9,030.2,027.0,0000.0,0031.48,0005.48,0003.08
2024-06-07 15:45:00,SystemResetWarning,0827.5,5.01,000.00,029.1,026.2,000.0,037.9,029.9,026.4,0000.0,0031.93,0005.50,0003.08
2024-06-07 15:46:00,SystemResetWarning,0827.4,5.01,000.00,029.0,026.7,000.0,037.8,030.2,025.9,0000.0,0030.06,0005.42,0003.02
2024-06-07 15:47:00,SystemResetWarning,0827.4,4.98,000.00,029.0,027.1,000.0,037.7,030.4,024.2,0000.0,0030.29,0005.24,0002.95
2024-06-07 15:48:00,SystemResetWarning,0827.6,5.00,000.00,029.1,027.5,000.0,037.6,030.6,022.5,0000.0,0029.17,0005.06,0002.87
2024-06-07 15:49:00,SystemResetWarning,0827.8,5.01,000.00,029.2,027.9,000.0,037.6,030.8,024.8,0000.0,0029.80,0004.96,0002.79
2024-06-07 15:50:00,SystemResetWarning,0827.6,4.99,000.00,029.2,028.2,000.0,037.6,030.9,024.5,0000.0,0030.18,0004.83,0002.73
2024-06-07 15:51:00,SystemResetWarning,0827.6,4.99,000.00,029.3,028.4,000.0,037.6,031.0,026.4,0000.0,0029.36,0004.75,0002.67
2024-06-07 15:52:00,SystemResetWarning,0827.7,5.00,000.00,029.4,028.6,000.0,037.6,031.1,026.4,0000.0,0027.98,0004.63,0002.63
2024-06-07 15:53:00,SystemResetWarning,0827.7,5.01,000.00,029.4,028.8,000.0,037.6,031.2,025.0,0000.0,0028.76,0004.55,0002.58
2024-06-07 15:54:00,SystemResetWarning,0827.5,5.01,000.00,029.5,029.0,000.0,037.7,031.3,024.4,0000.0,0027.08,0004.41,0002.53
2024-06-07 15:55:00,SystemResetWarning,0827.5,5.00,000.00,029.6,029.1,000.0,037.7,031.4,023.8,0000.0,0027.46,0004.33,0002.49
2024-06-07 15:56:00,SystemResetWarning,0827.5,5.00,000.00,029.6,029.0,000.0,037.7,031.3,022.5,0000.0,0026.74,0004.24,0002.43
2024-06-07 15:57:00,SystemResetWarning,0827.4,4.97,000.00,029.5,027.3,000.0,037.8,030.5,023.6,0000.0,0028.05,0004.16,0002.36
2024-06-07 15:58:00,SystemResetWarning,0827.4,5.03,000.00,029.1,026.1,000.0,037.8,029.9,025.1,0000.0,0027.98,0004.13,0002.34
2024-06-07 15:59:00,SystemResetWarning,0827.7,4.98,000.00,029.0,026.6,000.0,037.8,030.1,025.6,0000.0,0027.77,0004.12,0002.36
